Weather History for West Palm Beach, FL

Change the Weather History Date:

Monday, July 23, 2012

  Actual Average Record
Temperature  
Mean Temperature 80 °F 83 °F  
Max Temperature 86 °F 90 °F 98 °F (1942)
Min Temperature 74 °F 76 °F 68 °F (1921)
Degree Days  
Heating Degree Days 0 0  
Month to date heating degree days 0 0  
Since 1 June heating degree days 0 0  
Since 1 July heating degree days 0 0  
Cooling Degree Days 15 18  
Month to date cooling degree days 402 403  
Year to date cooling degree days 2189 2002  
Since 1 June cooling degree days 900 893  
Growing Degree Days 30 (Base 50)    
Moisture  
Dew Point 74 °F    
Average Humidity 80    
Maximum Humidity 94    
Minimum Humidity 65    
Precipitation  
Precipitation 0.42 in 0.17 in 3.50 in (1920)
Month to date precipitation 5.32 4.34  
Year to date precipitation 38.78 31.35  
Snow  
Snow 0.00 in - - ()
Month to date snowfall 0.0  
Since 1 June snowfall 0.0  
Since 1 July snowfall 0.0  
Snow Depth 0.00 in    
Sea Level Pressure  
Sea Level Pressure 30.14 in    
Wind  
Wind Speed 9 mph (ESE)    
Max Wind Speed 25 mph    
Max Gust Speed 32 mph    
Visibility 9 miles    
Events Rain , Thunderstorm    
T = Trace of Precipitation, MM = Missing Value Source: NWS Daily Summary

Daily Weather History Graph

Daily Weather History Graph

Search for Another Location

Airport:

Trip Planner

Search our weather history database for the weather conditions in past years. The results will help you decide how hot, cold, wet, or windy it might be!

Date:

Astronomy

Jul. 23, 2012 Rise Set
Actual Time 6:40 AM EDT 8:12 PM EDT
Civil Twilight 6:15 AM EDT 8:38 PM EDT
Nautical Twilight 5:45 AM EDT 9:08 PM EDT
Astronomical Twilight 5:13 AM EDT 9:40 PM EDT
Moon 10:56 AM EDT (7/23) 11:03 PM EDT (7/23)
Length of Visible Light 14h 22m
Length of Day
13h 31m
Waxing Crescent, 21% of the Moon is Illuminated
Jul 23
Waxing Crescent
Jul 26
First Quarter
Aug 1
Full
Aug 9
Last Quarter
Aug 17
New

Hourly Weather History & Observations

Time (EDT) Temp. Heat Index Dew Point Humidity Pressure Visibility Wind Dir Wind Speed Gust Speed Precip Events Conditions
12:53 AM 80.1 °F 85.1 °F 75.0 °F 85% 30.12 in 10.0 mi SE 8.1 mph - N/A   Mostly Cloudy
1:53 AM 80.1 °F 85.1 °F 75.0 °F 85% 30.10 in 10.0 mi SE 6.9 mph - N/A   Mostly Cloudy
2:53 AM 80.1 °F 85.4 °F 75.9 °F 87% 30.11 in 10.0 mi ESE 10.4 mph - N/A   Mostly Cloudy
3:53 AM 81.0 °F 86.7 °F 75.0 °F 82% 30.12 in 10.0 mi ESE 9.2 mph - N/A   Mostly Cloudy
4:51 AM 77.0 °F - 73.4 °F 89% 30.14 in 1.0 mi SSE 16.1 mph 32.2 mph 0.00 in Rain , Thunderstorm Heavy Thunderstorms and Rain
4:53 AM 75.9 °F - 73.0 °F 91% 30.14 in 1.0 mi South 12.7 mph 32.2 mph 0.09 in Rain , Thunderstorm Heavy Thunderstorms and Rain
5:00 AM 75.2 °F - 71.6 °F 89% 30.13 in 4.0 mi ESE 5.8 mph - 0.23 in Rain , Thunderstorm Thunderstorms and Rain
5:53 AM 75.0 °F - 72.0 °F 90% 30.12 in 10.0 mi SE 11.5 mph 20.7 mph 0.25 in Rain , Thunderstorm Light Thunderstorms and Rain
6:24 AM 75.2 °F - 71.6 °F 89% 30.13 in 10.0 mi East 4.6 mph - 0.01 in Rain , Thunderstorm Light Thunderstorms and Rain
6:53 AM 75.0 °F - 72.0 °F 90% 30.13 in 10.0 mi SE 3.5 mph - 0.01 in Thunderstorm Thunderstorm
7:53 AM 75.9 °F - 73.0 °F 91% 30.16 in 10.0 mi East 12.7 mph - 0.01 in Rain , Thunderstorm Light Thunderstorms and Rain
8:32 AM 75.2 °F - 71.6 °F 89% 30.16 in 10.0 mi ESE 10.4 mph - 0.01 in Rain Light Rain
8:53 AM 75.0 °F - 73.0 °F 94% 30.16 in 10.0 mi ESE 10.4 mph - 0.03 in Rain Light Rain
9:53 AM 75.9 °F - 73.9 °F 94% 30.16 in 10.0 mi SE 11.5 mph - 0.02 in Rain Light Rain
10:48 AM 78.8 °F - 73.4 °F 83% 30.17 in 10.0 mi ESE 8.1 mph - 0.01 in Rain Light Rain
10:53 AM 78.1 °F - 73.9 °F 87% 30.17 in 10.0 mi ESE 8.1 mph - 0.01 in Rain Light Rain
11:53 AM 81.0 °F 86.7 °F 75.0 °F 82% 30.17 in 10.0 mi ESE 10.4 mph - 0.00 in   Mostly Cloudy
12:53 PM 82.9 °F 88.0 °F 72.0 °F 69% 30.17 in 10.0 mi ESE 9.2 mph - N/A   Mostly Cloudy
1:53 PM 84.0 °F 89.0 °F 71.1 °F 65% 30.15 in 10.0 mi ESE 10.4 mph - N/A   Mostly Cloudy
2:53 PM 84.0 °F 90.2 °F 73.0 °F 69% 30.15 in 10.0 mi East 10.4 mph - N/A   Mostly Cloudy
3:53 PM 84.9 °F 91.4 °F 73.0 °F 67% 30.14 in 10.0 mi ESE 10.4 mph - N/A   Mostly Cloudy
4:53 PM 86.0 °F 93.8 °F 73.9 °F 67% 30.12 in 10.0 mi ESE 10.4 mph - N/A   Mostly Cloudy
5:53 PM 84.0 °F 91.9 °F 75.0 °F 74% 30.14 in 10.0 mi SE 11.5 mph - N/A   Mostly Cloudy
6:53 PM 82.9 °F 90.8 °F 75.9 °F 79% 30.15 in 10.0 mi SSE 6.9 mph - N/A   Mostly Cloudy
7:53 PM 82.9 °F 90.8 °F 75.9 °F 79% 30.15 in 10.0 mi ESE 8.1 mph - N/A   Mostly Cloudy
8:53 PM 82.0 °F 89.4 °F 75.9 °F 82% 30.14 in 10.0 mi East 9.2 mph - N/A   Mostly Cloudy
9:53 PM 82.0 °F 90.2 °F 77.0 °F 85% 30.15 in 10.0 mi ESE 4.6 mph - N/A   Scattered Clouds
10:10 PM 82.4 °F 90.9 °F 77.0 °F 84% 30.16 in 10.0 mi SE 3.5 mph - N/A   Mostly Cloudy
10:53 PM 82.0 °F 90.2 °F 77.0 °F 85% 30.17 in 10.0 mi ESE 4.6 mph - N/A   Mostly Cloudy
11:53 PM 82.0 °F 90.2 °F 77.0 °F 85% 30.15 in 10.0 mi ESE 5.8 mph - N/A   Mostly Cloudy